Albany, NY

4:01 PM EST on November 16, 2019 (GMT -0500)
Albany International

Weather History for KALB - July, 2019

Change the Weather History Date:

Monday, July 15, 2019

  Actual Average Record
Temperature  
Mean Temperature 73 °F 72 °F  
Max Temperature 85 °F 83 °F 96 °F (1997)
Min Temperature 60 °F 62 °F 44 °F (1950)
Degree Days  
Heating Degree Days 0 0  
Month to date heating degree days 0 0  
Since 1 June heating degree days 27 52  
Since 1 July heating degree days 0 0  
Cooling Degree Days 8 7  
Month to date cooling degree days 167 102  
Year to date cooling degree days 317 250  
Since 1 June cooling degree days 295 220  
Growing Degree Days 22 (Base 50)    
Moisture  
Dew Point 57 °F    
Average Humidity 61    
Maximum Humidity 84    
Minimum Humidity 37    
Precipitation  
Precipitation 0.00 in 0.14 in 3.23 in (2000)
Month to date precipitation 0.51 1.98  
Year to date precipitation 21.38 20.55  
Sea Level Pressure  
Sea Level Pressure 30.05 in    
Wind  
Wind Speed 6 mph (WNW)    
Max Wind Speed 16 mph    
Max Gust Speed 23 mph    
Visibility 10 miles    
Events      
T = Trace of Precipitation, MM = Missing Value Source: NWS Daily Summary

Daily Weather History Graph

Daily Weather History Graph

Search for Another Location

Airport or City:

Astronomy

Jul. 15, 2019 Rise Set
Actual Time 5:30 AM EDT 8:31 PM EDT
Civil Twilight 4:56 AM EDT 9:05 PM EDT
Nautical Twilight 4:13 AM EDT 9:48 PM EDT
Astronomical Twilight 3:21 AM EDT 10:39 PM EDT
Moon 7:47 PM EDT (7/15) 4:15 AM EDT (7/15)
Length of Visible Light 16h 09m
Length of Day
15h 01m
Waxing Gibbous, 98% of the Moon is Illuminated
Jul 15
Waxing Gibbous
Jul 16
Full
Jul 24
Last Quarter
Jul 31
New
Aug 7
First Quarter

Hourly Weather History & Observations

Time (EDT) Temp. Heat Index Dew Point Humidity Pressure Visibility Wind Dir Wind Speed Gust Speed Precip Events Conditions
12:51 AM 69.1 °F - 55.9 °F 63% 30.04 in 10.0 mi WNW 9.2 mph - N/A   Scattered Clouds
1:51 AM 66.9 °F - 57.0 °F 70% 30.04 in 10.0 mi WNW 6.9 mph - N/A   Scattered Clouds
2:51 AM 66.0 °F - 57.0 °F 73% 30.04 in 10.0 mi NW 6.9 mph - N/A   Partly Cloudy
3:51 AM 66.0 °F - 57.0 °F 73% 30.03 in 10.0 mi NNW 5.8 mph - N/A   Scattered Clouds
4:51 AM 63.0 °F - 55.9 °F 78% 30.04 in 10.0 mi Calm Calm - N/A   Partly Cloudy
5:51 AM 61.0 °F - 55.9 °F 83% 30.06 in 10.0 mi NE 3.5 mph - N/A   Mostly Cloudy
6:51 AM 64.0 °F - 57.9 °F 80% 30.06 in 10.0 mi SSW 3.5 mph - N/A   Scattered Clouds
7:51 AM 66.9 °F - 59.0 °F 76% 30.07 in 10.0 mi West 4.6 mph - N/A   Scattered Clouds
8:51 AM 69.1 °F - 59.0 °F 70% 30.08 in 10.0 mi WNW 4.6 mph - N/A   Scattered Clouds
9:51 AM 72.0 °F - 59.0 °F 64% 30.08 in 10.0 mi NW 4.6 mph - N/A   Scattered Clouds
10:51 AM 75.9 °F - 57.0 °F 52% 30.08 in 10.0 mi Variable 3.5 mph - N/A   Scattered Clouds
11:51 AM 79.0 °F - 57.0 °F 47% 30.08 in 10.0 mi North 9.2 mph - N/A   Scattered Clouds
12:51 PM 79.0 °F - 55.0 °F 44% 30.07 in 10.0 mi NNE 10.4 mph - N/A   Scattered Clouds
1:51 PM 81.0 °F 80.4 °F 53.1 °F 38% 30.05 in 10.0 mi NW 6.9 mph - N/A   Scattered Clouds
2:51 PM 82.9 °F 81.9 °F 54.0 °F 37% 30.04 in 10.0 mi NW 13.8 mph 19.6 mph N/A   Scattered Clouds
3:51 PM 84.0 °F 82.9 °F 55.0 °F 37% 30.02 in 10.0 mi West 8.1 mph - N/A   Mostly Cloudy
4:51 PM 84.0 °F 83.0 °F 55.9 °F 38% 30.01 in 10.0 mi WSW 8.1 mph - N/A   Mostly Cloudy
5:51 PM 82.9 °F 82.0 °F 55.0 °F 38% 30.01 in 10.0 mi West 10.4 mph - N/A   Mostly Cloudy
6:51 PM 82.0 °F 81.6 °F 55.9 °F 41% 30.01 in 10.0 mi West 10.4 mph - N/A   Mostly Cloudy
7:51 PM 79.0 °F - 57.0 °F 47% 30.02 in 10.0 mi West 9.2 mph - N/A   Mostly Cloudy
8:51 PM 73.9 °F - 57.0 °F 55% 30.03 in 10.0 mi WNW 6.9 mph - N/A   Mostly Cloudy
9:51 PM 73.0 °F - 57.9 °F 59% 30.04 in 10.0 mi WNW 5.8 mph - N/A   Mostly Cloudy
10:51 PM 70.0 °F - 57.9 °F 65% 30.05 in 10.0 mi West 4.6 mph - N/A   Mostly Cloudy
11:51 PM 68.0 °F - 57.9 °F 70% 30.06 in 10.0 mi West 5.8 mph - N/A   Mostly Cloudy